TimeEDT,TemperatureF,Dew PointF,Humidity,Sea Level PressureIn,VisibilityMPH,Wind Direction,Wind SpeedMPH,Gust SpeedMPH,PrecipitationIn,Events,Conditions,WindDirDegrees,DateUTC
12:05 AM,43.0,29.3,59,30.12,10.0,West,6.9,-,N/A,,Clear,280,2013-03-28 04:05:00
12:20 AM,42.8,29.7,60,30.12,10.0,West,6.9,-,N/A,,Clear,280,2013-03-28 04:20:00
12:45 AM,42.6,29.7,60,30.12,10.0,West,3.5,-,N/A,,Clear,270,2013-03-28 04:45:00
1:05 AM,42.3,29.8,61,30.12,10.0,West,4.6,-,N/A,,Clear,270,2013-03-28 05:05:00
1:25 AM,42.3,30.2,62,30.12,10.0,West,4.6,-,N/A,,Mostly Cloudy,280,2013-03-28 05:25:00
1:45 AM,42.4,30.4,62,30.12,10.0,WNW,6.9,-,N/A,,Overcast,290,2013-03-28 05:45:00
2:05 AM,42.4,30.4,62,30.11,10.0,WNW,5.8,-,N/A,,Overcast,290,2013-03-28 06:05:00
2:25 AM,41.9,30.6,64,30.11,10.0,West,5.8,-,N/A,,Mostly Cloudy,280,2013-03-28 06:25:00
2:45 AM,41.9,30.7,65,30.11,10.0,WNW,4.6,-,N/A,,Mostly Cloudy,290,2013-03-28 06:45:00
3:05 AM,41.9,30.7,65,30.11,10.0,West,5.8,-,N/A,,Scattered Clouds,280,2013-03-28 07:05:00
3:25 AM,41.4,30.9,66,30.11,10.0,West,5.8,-,N/A,,Clear,270,2013-03-28 07:25:00
3:45 AM,41.0,30.9,67,30.10,10.0,West,4.6,-,N/A,,Clear,260,2013-03-28 07:45:00
4:05 AM,40.8,30.9,68,30.10,10.0,Calm,Calm,-,N/A,,Clear,0,2013-03-28 08:05:00
4:20 AM,40.3,30.9,69,30.10,10.0,Calm,Calm,-,N/A,,Clear,0,2013-03-28 08:20:00
4:45 AM,40.6,30.2,66,30.09,10.0,WSW,3.5,-,N/A,,Scattered Clouds,240,2013-03-28 08:45:00
5:05 AM,40.1,30.0,67,30.09,10.0,Calm,Calm,-,N/A,,Scattered Clouds,0,2013-03-28 09:05:00
5:25 AM,40.5,29.5,65,30.09,10.0,Calm,Calm,-,N/A,,Clear,0,2013-03-28 09:25:00
6:05 AM,40.1,29.7,66,30.10,10.0,West,4.6,-,N/A,,Clear,270,2013-03-28 10:05:00
6:25 AM,40.5,29.7,65,30.10,10.0,West,3.5,-,N/A,,Mostly Cloudy,260,2013-03-28 10:25:00
6:45 AM,40.5,29.7,65,30.10,10.0,West,4.6,-,N/A,,Overcast,260,2013-03-28 10:45:00
7:05 AM,40.1,29.7,66,30.11,10.0,West,4.6,-,N/A,,Scattered Clouds,270,2013-03-28 11:05:00
7:25 AM,41.0,30.0,65,30.11,10.0,West,6.9,-,N/A,,Scattered Clouds,270,2013-03-28 11:25:00
7:45 AM,41.5,30.0,64,30.11,10.0,West,4.6,-,N/A,,Mostly Cloudy,260,2013-03-28 11:45:00
8:05 AM,42.3,30.2,62,30.11,10.0,West,3.5,-,N/A,,Mostly Cloudy,260,2013-03-28 12:05:00
8:25 AM,43.7,30.7,60,30.12,10.0,West,8.1,-,N/A,,Mostly Cloudy,270,2013-03-28 12:25:00
8:45 AM,44.6,30.9,59,30.12,10.0,WNW,8.1,-,N/A,,Mostly Cloudy,290,2013-03-28 12:45:00
9:05 AM,44.6,31.5,60,30.12,10.0,West,6.9,-,N/A,,Mostly Cloudy,270,2013-03-28 13:05:00
9:25 AM,45.5,31.6,58,30.11,10.0,West,8.1,17.3,N/A,,Overcast,280,2013-03-28 13:25:00
9:45 AM,46.6,32.0,57,30.12,10.0,WNW,9.2,-,N/A,,Mostly Cloudy,290,2013-03-28 13:45:00
10:05 AM,46.6,32.0,57,30.12,10.0,NW,10.4,16.1,N/A,,Mostly Cloudy,310,2013-03-28 14:05:00
10:25 AM,46.6,31.8,56,30.12,10.0,WNW,12.7,17.3,N/A,,Overcast,300,2013-03-28 14:25:00
10:45 AM,47.3,32.0,55,30.13,10.0,WNW,12.7,18.4,N/A,,Overcast,300,2013-03-28 14:45:00
11:05 AM,47.5,31.8,55,30.13,10.0,NNW,10.4,-,N/A,,Overcast,330,2013-03-28 15:05:00
11:25 AM,47.3,31.5,54,30.13,10.0,NW,13.8,23.0,N/A,,Overcast,320,2013-03-28 15:25:00
11:45 AM,47.3,31.3,54,30.13,10.0,NW,13.8,18.4,N/A,,Overcast,310,2013-03-28 15:45:00
12:05 PM,47.7,31.1,53,30.13,10.0,NW,16.1,23.0,N/A,,Overcast,320,2013-03-28 16:05:00
12:25 PM,47.8,30.9,52,30.13,10.0,NW,9.2,18.4,N/A,,Overcast,320,2013-03-28 16:25:00
12:45 PM,48.6,29.3,47,30.12,10.0,NW,13.8,24.2,N/A,,Overcast,320,2013-03-28 16:45:00
1:05 PM,49.8,29.7,46,30.12,10.0,NNW,11.5,19.6,N/A,,Overcast,330,2013-03-28 17:05:00
1:25 PM,49.3,28.4,45,30.12,10.0,NW,6.9,18.4,N/A,,Overcast,320,2013-03-28 17:25:00
1:45 PM,50.0,28.2,43,30.13,10.0,NNW,13.8,21.9,N/A,,Overcast,330,2013-03-28 17:45:00
2:05 PM,50.2,27.5,42,30.12,10.0,NW,10.4,20.7,N/A,,Overcast,320,2013-03-28 18:05:00
2:25 PM,50.2,26.8,40,30.12,10.0,NW,6.9,20.7,N/A,,Overcast,310,2013-03-28 18:25:00
2:45 PM,50.0,25.5,39,30.12,10.0,NNW,15.0,21.9,N/A,,Overcast,340,2013-03-28 18:45:00
3:05 PM,50.0,26.1,39,30.12,10.0,NW,9.2,-,N/A,,Overcast,320,2013-03-28 19:05:00
3:25 PM,50.0,25.9,39,30.12,10.0,NNW,10.4,17.3,N/A,,Overcast,330,2013-03-28 19:25:00
3:45 PM,50.2,26.1,39,30.12,10.0,NNW,9.2,20.7,N/A,,Overcast,340,2013-03-28 19:45:00
4:05 PM,50.5,28.2,42,30.12,10.0,NW,9.2,18.4,N/A,,Overcast,320,2013-03-28 20:05:00
4:25 PM,50.0,28.2,43,30.12,10.0,NW,9.2,23.0,N/A,,Overcast,320,2013-03-28 20:25:00
4:45 PM,51.1,28.2,41,30.13,10.0,NW,11.5,21.9,N/A,,Overcast,320,2013-03-28 20:45:00
5:05 PM,50.4,29.5,45,30.13,10.0,NNW,8.1,-,N/A,,Overcast,330,2013-03-28 21:05:00
5:25 PM,50.0,29.8,46,30.13,10.0,WNW,12.7,20.7,N/A,,Overcast,300,2013-03-28 21:25:00
5:45 PM,49.5,30.7,49,30.15,10.0,West,9.2,-,N/A,,Overcast,280,2013-03-28 21:45:00
6:05 PM,49.1,31.3,50,30.15,10.0,NW,10.4,20.7,N/A,,Overcast,310,2013-03-28 22:05:00
6:25 PM,49.1,31.8,51,30.16,10.0,West,10.4,18.4,N/A,,Overcast,280,2013-03-28 22:25:00
6:45 PM,48.7,32.0,52,30.17,10.0,WNW,12.7,18.4,N/A,,Overcast,300,2013-03-28 22:45:00
7:05 PM,48.4,31.6,52,30.17,10.0,NW,11.5,17.3,N/A,,Overcast,310,2013-03-28 23:05:00
7:25 PM,48.2,31.8,53,30.18,10.0,NW,10.4,-,N/A,,Overcast,310,2013-03-28 23:25:00
7:45 PM,48.2,31.8,53,30.19,10.0,WNW,6.9,-,N/A,,Overcast,300,2013-03-28 23:45:00
8:05 PM,47.7,32.0,55,30.19,10.0,WNW,9.2,18.4,N/A,,Overcast,300,2013-03-29 00:05:00
8:25 PM,47.7,32.0,55,30.20,10.0,WNW,6.9,-,N/A,,Overcast,290,2013-03-29 00:25:00
8:45 PM,47.8,32.0,54,30.20,10.0,NW,8.1,-,N/A,,Overcast,320,2013-03-29 00:45:00
9:05 PM,47.8,32.0,54,30.21,10.0,WNW,8.1,-,N/A,,Overcast,300,2013-03-29 01:05:00
9:25 PM,47.5,32.0,55,30.21,10.0,WNW,8.1,-,N/A,,Overcast,300,2013-03-29 01:25:00
9:45 PM,47.5,32.0,55,30.22,10.0,NW,6.9,-,N/A,,Overcast,320,2013-03-29 01:45:00
10:05 PM,47.3,32.0,55,30.22,10.0,NW,6.9,-,N/A,,Overcast,310,2013-03-29 02:05:00
10:25 PM,46.9,32.0,56,30.22,10.0,WNW,4.6,-,N/A,,Overcast,300,2013-03-29 02:25:00
10:45 PM,46.9,32.0,56,30.22,10.0,WNW,5.8,-,N/A,,Overcast,300,2013-03-29 02:45:00
11:05 PM,46.8,32.0,57,30.23,10.0,NW,5.8,-,N/A,,Overcast,310,2013-03-29 03:05:00
11:25 PM,46.6,32.0,57,30.23,10.0,WNW,5.8,-,N/A,,Overcast,300,2013-03-29 03:25:00